Location: site
(53.0000°N, 23.0500°E)
Time: 19:17:31
(UTC+01:00)

SAOCOM 1-A - Pass Details

Date: 07 December 2020
Orbit: 621 x 623 km, 97.9° (Epoch: 24 January)

Event Time Altitude Azimuth Distance (km) Brightness Sun altitude
Exits shadow 18:48:50 33° 255° (WSW) 1,065 ? -31.3°
Drops below altitude 10° 18:51:40 10° 224° (SW) 1,993 ? -31.7°
Sets 18:53:56 0° 217° (SW) 2,895 ? -32.0°
